Regional Weather Roundup
Issued by NWS Binghamton, NY

Home | Current Version | Previous Version | Text Only | Print | Product List | Glossary On
Versions: 1 2 3 4 5 6 7 8 9 10 11 12 13 14 15 16 17 18 19 20 21 22 23 24 25 26 27 28 29 30 31 32 33 34 35 36 37 38 39 40 41 42 43 44 45 46 47 48 49 50
000
ASUS41 KBGM 240710
RWRBGM

REGIONAL WEATHER ROUNDUP
NATIONAL WEATHER SERVICE BINGHAMTON NY
200 AM EST FRI NOV 24 2017

Note: "fair" indicates few or no clouds below 12,000 feet with no
significant weather and/or obstructions to visibility.

* = Station(s) that does not report precipitation, such as rain,
snow, etc, also no thunder or fog.

NYZ009-015>018-022>025-036-037-044>046-055>057-062-240800
...Central New York...

CITY           SKY/WX    TMP DP  RH WIND       PRES   REMARKS
Binghamton     CLOUDY    31  20  63 SW6       29.95R WCI  25
Cortland       CLOUDY    34  25  69 SW3       29.96F
Dansville      CLOUDY    36  23  59 SE6       29.97S WCI  31
Elmira         CLOUDY    30  27  88 CALM      29.98S
Seneca Falls   CLOUDY    37  23  56 S9        29.97S WCI  31
Ithaca         CLOUDY    34  22  61 S5        29.97S WCI  30
Hamilton       CLOUDY    34  21  60 SW3       29.96S
Hornell        CLOUDY    34  25  69 CALM      29.99F
Monticello     MOCLDY    26  20  77 SW5       29.98R WCI  20
Penn Yan       CLOUDY    37  22  54 S9        29.95F WCI  30
Rome           CLOUDY    36  25  64 CALM      29.98S
Sidney         MOCLDY    32  25  74 CALM      29.99R
Syracuse       CLOUDY    37  23  56 SW9       29.96S WCI  30
$$

PAZ038>040-043-044-047-048-072-240800
...Northeast Pennsylvania...

CITY           SKY/WX    TMP DP  RH WIND       PRES   REMARKS
Hazleton       CLEAR     21  14  73 CALM      30.01S
Scranton       CLOUDY    31  23  72 SW3       30.00S
$$
&&
KEY
WCI = Wind Chill Index
VSB = Visibility
HX  = Heat Index
$$



USA.gov is the U.S. government's official web portal to all federal, state and local government web resources and services.